User: anonymous   Login
Location: Columbia
(38.9520°N, 92.3340°W)
Time: 15:16:15
(UTC-05:00)
Language:

Meteor 1-4 Rocket - Orbit

View from above orbital plane
View from above orbital plane
View from above satellite
View from above satellite

Ground track
Ground track

The orbit data is extracted from the following two-line orbital elements,

1 04394U 70037B   15211.36043206  .00002132  00000-0  82243-4 0  9992
2 04394 081.2444 100.8416 0042952 309.5452 050.1989 15.24961517459815
Epoch (UTC): 30 July 2015 08:39:01
Eccentricity: 0.0042952
inclination: 81.2444°
perigee height: 461 km
apogee height: 520 km
right ascension of ascending node: 100.8416°
argument of perigee: 309.5452°
revolutions per day: 15.24961517
mean anomaly at epoch: 50.1989°
orbit number at epoch: 45981

The dashed part of the orbit path shows where the satellite is in the earth's shadow,  

DLR